EW8804 Weather Reports


time (UTC)temp
C
wind
direction
speed
KPH
gust
KPH
rain 1hr
cm
rain 24hr
cm
rain mn
cm
humidity
%
barometer
mb
20260502201726 17 257 0.0 3.2 0.00 0.00 0.00 71 1015.5
20260502201227 17 257 0.0 3.2 0.00 0.00 0.00 71 1015.4
20260502200725 17 257 0.0 4.8 0.00 0.00 0.00 71 1015.4
20260502200215 17 257 0.0 6.4 0.00 0.00 0.00 71 1015.4
20260502195724 17 252 3.2 6.4 0.00 0.00 0.00 71 1015.4
20260502195219 17 242 1.6 4.8 0.00 0.00 0.00 70 1015.3
20260502194741 17 260 0.0 1.6 0.00 0.00 0.00 69 1015.3
20260502194222 18 259 0.0 0.0 0.00 0.00 0.00 69 1015.3
20260502193726 18 256 0.0 0.0 0.00 0.00 0.00 68 1015.3
20260502193227 18 256 0.0 0.0 0.00 0.00 0.00 67 1015.3
20260502192730 18 256 0.0 0.0 0.00 0.00 0.00 67 1015.3
20260502192236 18 256 0.0 0.0 0.00 0.00 0.00 66 1015.3
20260502191727 18 256 0.0 0.0 0.00 0.00 0.00 66 1015.3
20260502191228 18 256 0.0 1.6 0.00 0.00 0.00 65 1015.3
20260502190726 18 256 0.0 1.6 0.00 0.00 0.00 63 1015.3
20260502190221 18 236 0.0 0.0 0.00 0.00 0.00 63 1015.3
20260502185743 19 226 0.0 0.0 0.00 0.00 0.00 62 1015.2
20260502185234 19 240 0.0 0.0 0.00 0.00 0.00 62 1015.2
20260502184734 19 232 0.0 0.0 0.00 0.00 0.00 61 1015.3
20260502184238 19 231 0.0 1.6 0.00 0.00 0.00 61 1015.3
20260502183720 19 228 0.0 1.6 0.00 0.00 0.00 60 1015.3
20260502183240 19 232 0.0 0.0 0.00 0.00 0.00 59 1015.3
20260502182724 20 231 0.0 0.0 0.00 0.00 0.00 59 1015.1
20260502182243 20 244 0.0 0.0 0.00 0.00 0.00 59 1015.2
20260502181737 20 267 0.0 0.0 0.00 0.00 0.00 58 1015.1
20260502181221 20 226 0.0 4.8 0.00 0.00 0.00 58 1015.1
20260502180717 20 226 0.0 6.4 0.00 0.00 0.00 57 1015.2
20260502180219 20 228 0.0 8.0 0.00 0.00 0.00 56 1015.2
20260502170228 21 181 0.0 9.7 0.00 0.00 0.00 53 1015.2
20260502164215 22 180 6.4 17.7 0.00 0.00 0.00 49 1015.1
20260502163739 22 240 1.6 16.1 0.00 0.00 0.00 48 1015.3
20260502163239 22 236 4.8 14.5 0.00 0.00 0.00 48 1015.3
20260502162732 22 210 4.8 14.5 0.00 0.00 0.00 46 1015.2
20260502162251 22 202 3.2 14.5 0.00 0.00 0.00 47 1015.3
20260502161718 22 229 1.6 16.1 0.00 0.00 0.00 49 1015.5
20260502161234 22 182 3.2 20.9 0.00 0.00 0.00 48 1015.5
20260502160728 22 223 6.4 20.9 0.00 0.00 0.00 47 1015.5
20260502160240 22 281 11.3 17.7 0.00 0.00 0.00 46 1015.5
20260502152232 22 239 6.4 16.1 0.00 0.00 0.00 52 1015.7
20260502151737 22 250 6.4 19.3 0.00 0.00 0.00 52 1015.9
20260502151218 22 183 11.3 19.3 0.00 0.00 0.00 54 1016.0
20260502150758 22 255 4.8 14.5 0.00 0.00 0.00 54 1016.0
20260502150231 22 178 6.4 16.1 0.00 0.00 0.00 56 1016.0
20260502130730 21 230 0.0 0.0 0.00 0.00 0.00 62 1016.7
20260502130226 21 246 0.0 6.4 0.00 0.00 0.00 63 1017.0
20260502123730 20 261 0.0 3.2 0.00 0.00 0.00 65 1017.1
20260502123218 20 264 0.0 8.0 0.00 0.00 0.00 65 1017.2
20260502122720 21 264 3.2 9.7 0.00 0.00 0.00 63 1017.4
20260502122242 21 231 0.0 9.7 0.00 0.00 0.00 63 1017.4
20260502121742 21 207 0.0 6.4 0.00 0.00 0.00 63 1017.4
20260502121231 21 211 3.2 6.4 0.00 0.00 0.00 64 1017.4
20260502120738 20 204 0.0 4.8 0.00 0.00 0.00 64 1017.5
20260502120242 20 211 0.0 4.8 0.00 0.00 0.00 63 1017.5
20260502115737 20 186 0.0 0.0 0.00 0.00 0.00 64 1017.5
20260502115236 20 186 0.0 3.2 0.00 0.00 0.00 64 1017.6
20260502114716 20 188 0.0 4.8 0.00 0.00 0.00 65 1017.6
20260502114236 20 184 0.0 4.8 0.00 0.00 0.00 63 1017.8
20260502113718 20 219 0.0 4.8 0.00 0.00 0.00 64 1017.8
20260502113217 20 221 0.0 0.0 0.00 0.00 0.00 65 1017.9
20260502112720 20 223 0.0 0.0 0.00 0.00 0.00 64 1017.8
20260502112223 19 244 0.0 0.0 0.00 0.00 0.00 66 1018.0
20260502111727 19 244 0.0 3.2 0.00 0.00 0.00 66 1018.3
20260502111228 19 244 0.0 4.8 0.00 0.00 0.00 65 1018.4
20260502110727 19 244 0.0 6.4 0.00 0.00 0.00 66 1018.4
20260502110229 19 244 3.2 6.4 0.00 0.00 0.00 67 1018.5
20260502105732 19 232 1.6 4.8 0.00 0.00 0.00 67 1018.6
20260502105249 18 232 0.0 0.0 0.00 0.00 0.00 67 1018.8
20260502104736 18 232 0.0 0.0 0.00 0.00 0.00 67 1018.6
20260502104239 18 232 0.0 4.8 0.00 0.00 0.00 67 1018.7
20260502103739 18 232 1.6 4.8 0.00 0.00 0.00 67 1018.6
20260502103252 18 225 0.0 0.0 0.00 0.00 0.00 67 1018.5
20260502102742 18 226 0.0 0.0 0.00 0.00 0.00 67 1018.5
20260502102239 18 240 0.0 0.0 0.00 0.00 0.00 67 1018.8
20260502101753 18 240 0.0 6.4 0.00 0.00 0.00 68 1018.8
20260502101237 18 240 3.2 6.4 0.00 0.00 0.00 67 1018.9
20260502100736 18 194 0.0 0.0 0.00 0.00 0.00 66 1018.9
20260502100222 18 194 0.0 0.0 0.00 0.00 0.00 66 1018.8
20260502091217 17 213 1.6 3.2 0.00 0.00 0.00 71 1019.0
20260502090740 17 213 0.0 0.0 0.00 0.00 0.00 70 1019.0
20260502090231 17 213 0.0 4.8 0.00 0.00 0.00 70 1019.0